Regional Weather Roundup
Issued by NWS

Home | Current Version | Previous Version | Text Only | Print | Product List | Glossary Off
Versions: 1 2 3 4 5 6 7 8 9 10 11 12 13 14 15 16 17 18 19 20 21 22 23 24 25 26 27 28 29 30 31 32 33 34 35 36 37 38 39 40 41 42 43 44 45 46 47 48 49 50

719
ASUS43 KIND 291509
RWRIN

WEATHER ROUNDUP FOR INDIANA
NATIONAL WEATHER SERVICE INDIANAPOLIS IN
1100 AM EDT WED MAR 29 2017

NOTE: "FAIR" INDICATES FEW OR NO CLOUDS BELOW 12,000 FEET WITH NO
SIGNIFICANT WEATHER AND/OR OBSTRUCTIONS TO VISIBILITY.

* - STATION DOES NOT REPORT WEATHER SUCH AS PRECIPITATION OR FOG.

+ - STATION NOT QUALITY CONTROLLED BY THE NATIONAL WEATHER SERVICE.
    USE DATA WITH CAUTION...ESPECIALLY DEWPOINT AND RELATIVE
    HUMIDITY OBSERVATIONS.

INZ001>003-010>013-019-020-291600-
NORTHWEST INDIANA

CITY           SKY/WX    TMP DP  RH WIND       PRES   REMARKS
GARY /AIRPORT/ PTSUNNY   43  43 100 CALM      30.25R
KNOX *+        CLOUDY    45  21  39 E6        30.23R
LA PORTE +     MOSUNNY   46  38  75 SE10      30.25R
MICHIGAN CITY+ CLOUDY    46  37  71 SE9       30.25R
MONTICELLO +   CLOUDY    46  37  69 E10G16    30.22R
RENSSELAER +   CLOUDY    46  41  81 E12       30.23R
VALPARAISO     MOSUNNY   48  39  71 E10       30.26R

$$

LMZ046-743>745-291600-
SOUTHERN LAKE MICHIGAN

STATION/POSITION TIME  TEMP    WIND        PRES    WAVE
                       AIR SEA DIR/SP/G            HT
                 (UTC) (F)     (DEG/KT/KT) (MB)    (FT)
BURNS HARBOR     1403   42     100/  8/ 13 1024.4
MICHIGAN CITY    1440   45     120/  9/ 12   N/A

$$

INZ004-005-014>016-021>024-291600-
NORTH CENTRAL INDIANA

CITY           SKY/WX    TMP DP  RH WIND       PRES   REMARKS
ELKHART        SUNNY     46  36  66 E12G17    30.24F
GOSHEN         SUNNY     47  36  65 E15       30.24F
LOGANSPORT +   SUNNY     46  36  66 E15       30.23S
PERU/GRISSOM   CLOUDY    45  37  74 E17       30.20F
SOUTH BEND     CLOUDY    46  36  68 SE12      30.24F
WARSAW +       SUNNY     45  36  70 E13       30.24F

$$

INZ006>009-017-018-025>027-291600-
NORTHEAST INDIANA

CITY           SKY/WX    TMP DP  RH WIND       PRES   REMARKS
ANGOLA *+      SUNNY     45  34  65 E12       30.25R
AUBURN +       SUNNY     46  36  66 E9        30.26S
FORT WAYNE     PTSUNNY   45  37  73 E15       30.26R
HUNTINGTON +   PTSUNNY   45  38  77 E14       30.25R
KENDALLVILLE + SUNNY     45  37  72 E13       30.25S

$$

INZ028-029-035-036-043>045-051>053-291600-
WEST CENTRAL INDIANA

CITY           SKY/WX    TMP DP  RH WIND       PRES   REMARKS
CRAWFORDSVL +  CLOUDY    48  41  76 E10       30.19R
GREENCASTLE +  PTSUNNY   48  39  71 E10       30.18R
LAFAYETTE      CLOUDY    49  39  68 E18       30.20R
TERRE HAUTE    CLOUDY    51  45  79 E17       30.14F

$$

INZ030>032-037>040-046>048-054>057-064-065-291600-
CENTRAL INDIANA

CITY           SKY/WX    TMP DP  RH WIND       PRES   REMARKS
CP ATTERBURY + CLOUDY    48  41  76 E16       30.17F
COLUMBUS       PTSUNNY   50  45  81 E14       30.17F
FRANKFORT +    CLOUDY    49  41  76 E16       30.21S
GREENWOOD *+   MOSUNNY   50  41  70 E14       30.17F
INDIANAPOLIS   PTSUNNY   50  38  63 E13       30.17F
-EAGLE CREEK   SUNNY     50  39  66 E16       30.17F
KOKOMO +       CLOUDY    44  38  79 E16       30.22F
MARION +       MOSUNNY   43  36  77 E14G21    30.23S
MT COMFORT *+  MOSUNNY   46  39  76 E16G24    30.19F
SHELBYVILLE    MOSUNNY   50  40  68 E16G23    30.17F
ZIONSVILLE +   MOSUNNY   47  40  79 E12       30.19F

$$

INZ033-034-041-042-049-050-058-059-291600-
EAST CENTRAL INDIANA

CITY           SKY/WX    TMP DP  RH WIND       PRES   REMARKS
MUNCIE         PTSUNNY   43  37  79 SE14      30.23R
RICHMOND +     CLOUDY    41  37  87 E15       30.22R

$$

INZ060-061-067>069-081>083-085>088-291600-
SOUTHWEST INDIANA

CITY           SKY/WX    TMP DP  RH WIND       PRES   REMARKS
EVANSVILLE     CLOUDY    60  50  69 E14       30.07F
HUNTINGBURG *+ CLOUDY    57  50  77 E18       30.09F
WASHINGTON +   CLOUDY    55  47  72 MISG      30.11F

$$

INZ062-063-066-070>080-084-089>092-291600-
SOUTH CENTRAL AND SOUTHEAST INDIANA

CITY           SKY/WX    TMP DP  RH WIND       PRES   REMARKS
BEDFORD +      CLOUDY    50  45  81 E8        30.14R
BLOOMINGTON    CLOUDY    50  43  77 E9        30.15S
MADISON *+     CLOUDY    48  41  76 NE12      30.19S
NORTH VERNON + CLOUDY    48  43  81 E10       30.18S
SEYMOUR +      CLOUDY    52  43  71 E10       30.16S

$$





USA.gov is the U.S. government's official web portal to all federal, state and local government web resources and services.